sat.trackr.live / text

‹ back to catalog

STARLINK-6332

NORAD 57339 · 2023-099M

PAYLOAD ACTIVE UNKNOWN

§ Identity

Operator
Country
US
Launch date
2023-07-16
Launch site
AFETR
Launch vehicle
Mass (kg)
RCS (m²)

Purposes: comms

External: N2YO · Heavens-Above · Gunter

§ Orbital elements

Epoch: 2026-05-25T02:49:06.112704Z

Period
94.27 min
Inclination
43.0013°
Eccentricity
0.0000183
Mean motion
15.27573464 rev/d
Perigee alt
482.9 km
Apogee alt
483.2 km
Semi-major
6,861.2 km
B*
3.2330e-5
RAAN
180.8963°
Arg perigee
186.1048°
Mean anomaly
173.9801°
Rev number
15,776

§ Raw data

STARLINK-63321 57339U 23099M   26145.11743186  .00000628  00000+0  32330-4 0  99992 57339  43.0013 180.8963 0000183 186.1048 173.9801 15.27573464157764

JSON: /api/v1/satellites/57339 · /tle

For live sub-satellite position, see the globe view (requires WebGL).

§ Visibility from observer

Set your observer location to see the next 7 days of passes ≥ 10°. The values pass through the URL so the page stays shareable.

No JS? Fill the form by hand. The geolocation button needs JavaScript.